Preston, Minnesota, United States (55965)
Lat: 43.67N, Lon: 92.08W
Wx Zone: MNZ095
Local Info
Past Weather Observations for Today

NOTE: This archive is for the closest National Weather Service station to Preston. Information may differ from the station used for current weather conditions.

Click here for Long-term Archive

Time Weather Temperature Dewpoint Humidity Pressure Winds Precip Visibility
17:15
Overcast
Fog And Mist
32°F / 0°C 30°F / -1°C 93% 29.98 in
(1015 mb)
N 8.1 mph
(N 13 kph)
- 5SM
16:56
Overcast
Fog And Mist
32°F / 0°C 30°F / -1°C 93% 29.98 in
(1015 mb)
NNE 5.8 mph
(NNE 9 kph)
- 4SM
16:35
Overcast
Fog And Mist
32°F / 0°C 30°F / -1°C 93% 29.98 in
(1015 mb)
NE 5.8 mph
(NE 9 kph)
- 3SM
16:15
Overcast
Fog And Mist
32°F / 0°C 30°F / -1°C 93% 29.98 in
(1015 mb)
N 5.8 mph
(N 9 kph)
- 4SM
15:56
Overcast
Fog And Mist
32°F / 0°C 30°F / -1°C 93% 29.95 in
(1014 mb)
N 10.4 mph
(N 17 kph)
- 4SM
15:35
Overcast
Fog And Mist
32°F / 0°C 30°F / -1°C 93% 29.95 in
(1014 mb)
NNE 9.2 mph
(NNE 15 kph)
- 4SM
15:15
Overcast
Fog And Mist
32°F / 0°C 30°F / -1°C 93% 29.98 in
(1015 mb)
NNE 10.4 mph
(NNE 17 kph)
- 4SM
14:55
Overcast
Fog And Mist
32°F / 0°C 30°F / -1°C 93% 29.95 in
(1014 mb)
N 9.2 mph
(N 15 kph)
- 4SM
14:35
Overcast
Fog And Mist
32°F / 0°C 30°F / -1°C 93% 29.95 in
(1014 mb)
N 8.1 mph
(N 13 kph)
- 4SM
14:15
Overcast
Fog And Mist
32°F / 0°C 30°F / -1°C 93% 29.95 in
(1014 mb)
N 9.2 mph
(N 15 kph)
- 4SM
13:55
Overcast
Fog And Mist
32°F / 0°C 30°F / -1°C 93% 29.95 in
(1014 mb)
N 9.2 mph
(N 15 kph)
- 4SM
13:35
Overcast
Fog And Mist
32°F / 0°C 30°F / -1°C 93% 29.95 in
(1014 mb)
N 10.4 mph
(N 17 kph)
- 4SM
13:16
Overcast
Fog And Mist
32°F / 0°C 30°F / -1°C 93% 29.95 in
(1014 mb)
N 8.1 mph
(N 13 kph)
- 4SM
12:55
Overcast
Fog And Mist
32°F / 0°C 30°F / -1°C 93% 29.95 in
(1014 mb)
N 11.5 mph
(N 19 kph)
- 4SM
12:35
Overcast
Fog And Mist
32°F / 0°C 30°F / -1°C 93% 29.95 in
(1014 mb)
N 11.5 mph
(N 19 kph)
- 3SM
12:16
Overcast
Fog And Mist
32°F / 0°C 30°F / -1°C 93% 29.95 in
(1014 mb)
N 9.2 mph
(N 15 kph)
- 2 1/2SM
11:55
Overcast
Fog And Mist
30°F / -1°C 30°F / -1°C 100% 29.95 in
(1014 mb)
NNW 9.2 mph
(NNW 15 kph)
- 1 1/4SM
11:35
Overcast
Fog And Mist
30°F / -1°C 30°F / -1°C 100% 29.95 in
(1014 mb)
NNW 8.1 mph
(NNW 13 kph)
- 1 3/4SM
11:16
Partly Cloudy
32°F / 0°C 30°F / -1°C 93% 29.95 in
(1014 mb)
NNW 9.2 mph
(NNW 15 kph)
- 7SM
10:55
Partly Cloudy
32°F / 0°C 30°F / -1°C 93% 29.95 in
(1014 mb)
N 5.8 mph
(N 9 kph)
- 10SM
10:35
Clear
32°F / 0°C 30°F / -1°C 93% 29.95 in
(1014 mb)
N 9.2 mph
(N 15 kph)
- 10SM
10:15
Clear
32°F / 0°C 30°F / -1°C 93% 29.95 in
(1014 mb)
NNW 8.1 mph
(NNW 13 kph)
- 10SM
09:56
Clear
30°F / -1°C 28°F / -2°C 93% 29.95 in
(1014 mb)
Calm - 7SM
09:35
Clear
28°F / -2°C 28°F / -2°C 100% 29.95 in
(1014 mb)
NW 6.9 mph
(NW 11 kph)
- 7SM
09:15
Clear
Fog And Mist
28°F / -2°C 27°F / -3°C 93% 29.92 in
(1013 mb)
Calm - 5SM
08:55
Clear
Fog And Mist
27°F / -3°C 27°F / -3°C 100% 29.92 in
(1013 mb)
Calm - 4SM
08:35
Clear
Fog And Mist
27°F / -3°C 27°F / -3°C 100% 29.92 in
(1013 mb)
Calm - 3SM
08:16
Obscured
Fog
25°F / -4°C 25°F / -4°C 100% 29.89 in
(1012 mb)
Calm - 1/4SM
07:55
Obscured
Fog
27°F / -3°C 27°F / -3°C 100% 29.89 in
(1012 mb)
Calm - 1/2SM
07:35
Clear
Fog And Mist
27°F / -3°C 25°F / -4°C 93% 29.89 in
(1012 mb)
SE 3.5 mph
(SE 6 kph)
- 2SM
07:15
Clear
Fog And Mist
27°F / -3°C 27°F / -3°C 100% 29.89 in
(1012 mb)
Calm - 5SM
06:55
Clear
Fog And Mist
27°F / -3°C 25°F / -4°C 93% 29.89 in
(1012 mb)
SE 3.5 mph
(SE 6 kph)
- 4SM
06:35
Clear
28°F / -2°C 27°F / -3°C 93% 29.86 in
(1011 mb)
SE 3.5 mph
(SE 6 kph)
- 10SM
06:15
Clear
30°F / -1°C 28°F / -2°C 93% 29.86 in
(1011 mb)
Calm - 10SM
05:55
Clear
30°F / -1°C 28°F / -2°C 93% 29.83 in
(1010 mb)
ESE 3.5 mph
(ESE 6 kph)
- 10SM
05:35
Clear
30°F / -1°C 28°F / -2°C 93% 29.86 in
(1011 mb)
Calm - 10SM
05:15
Clear
30°F / -1°C 27°F / -3°C 86% 29.83 in
(1010 mb)
Calm - 10SM
04:55
Clear
30°F / -1°C 28°F / -2°C 93% 29.83 in
(1010 mb)
Calm - 10SM
04:35
Clear
30°F / -1°C 27°F / -3°C 86% 29.83 in
(1010 mb)
Calm - 10SM
04:15
Clear
30°F / -1°C 28°F / -2°C 93% 29.83 in
(1010 mb)
Calm - 10SM
03:55
Clear
30°F / -1°C 28°F / -2°C 93% 29.83 in
(1010 mb)
Calm - 10SM
03:35
Partly Cloudy
32°F / 0°C 28°F / -2°C 87% 29.83 in
(1010 mb)
Calm - 10SM
03:15
Mostly Cloudy
30°F / -1°C 28°F / -2°C 93% 29.83 in
(1010 mb)
Calm - 10SM
02:55
Partly Cloudy
32°F / 0°C 28°F / -2°C 87% 29.83 in
(1010 mb)
Calm - 10SM
02:35
Clear
32°F / 0°C 28°F / -2°C 87% 29.83 in
(1010 mb)
S 5.8 mph
(S 9 kph)
- 10SM
02:15
Clear
32°F / 0°C 28°F / -2°C 87% 29.8 in
(1009 mb)
S 6.9 mph
(S 11 kph)
- 10SM
01:55
Partly Cloudy
32°F / 0°C 28°F / -2°C 87% 29.8 in
(1009 mb)
S 8.1 mph
(S 13 kph)
- 10SM
01:35
Mostly Cloudy
32°F / 0°C 28°F / -2°C 87% 29.8 in
(1009 mb)
S 6.9 mph
(S 11 kph)
- 10SM
01:15
Partly Cloudy
32°F / 0°C 28°F / -2°C 87% 29.8 in
(1009 mb)
S 6.9 mph
(S 11 kph)
- 10SM
00:55
Clear
34°F / 1°C 30°F / -1°C 87% 29.8 in
(1009 mb)
S 6.9 mph
(S 11 kph)
- 10SM
00:35
Clear
34°F / 1°C 30°F / -1°C 87% 29.8 in
(1009 mb)
S 8.1 mph
(S 13 kph)
- 10SM
00:15
Clear
34°F / 1°C 30°F / -1°C 87% 29.8 in
(1009 mb)
SSE 5.8 mph
(SSE 9 kph)
- 10SM
Time Weather Temperature Dewpoint Humidity Pressure Winds Precip Visibility


Weather for websites

WeatherForYou.com, LLC is not responsible for any damages or problems caused by this service. Current weather conditions are obtained from the closest station including government and personal stations which may have varying degrees of accuracy. Weather forecasts are derived from the NOAA NDFD. Like all things, this site belongs to Jesus Christ... He just trusts me to maintain it. If you have any questions or comments email webmaster@weatherforyou.com

Copyright © 2014, WeatherForYou.com LLC. All rights reserved.